Location: Newark
(40.7119°N, 74.0097°W)
Time: 05:31:31
(UTC+00:00)

Tiangong - Pass Details

Date: 25 June 2021
Orbit: 374 x 386 km, 41.5° (Epoch: 27 July)

Event Time Altitude Azimuth Distance (km) Brightness Sun altitude
Exits shadow 08:39:05 - 277° (W) 1,924 4.2 -8.0°
Reaches altitude 10° 08:40:24 10° 278° (W) 1,388 3.5 -7.8°
Maximum altitude 08:43:32 78° 5° (N) 391 1.2 -7.4°
Drops below altitude 10° 08:46:40 10° 92° (E) 1,396 4.7 -6.9°
Sets 08:48:45 0° 94° (E) 2,251 5.8 -6.6°
